Weather History for KMBL - December, 2012

Change the Weather History Date:

Sunday, December 16, 2012

  Actual Average Record
Temperature  
Mean Temperature 42 °F -  
Max Temperature 46 °F 34 °F 53 °F (1984)
Min Temperature 39 °F 23 °F 1 °F (2010)
Degree Days  
Heating Degree Days 22    
Moisture  
Dew Point 40 °F    
Average Humidity 93    
Maximum Humidity 100    
Minimum Humidity 87    
Precipitation  
Precipitation 0.10 in - - ()
Sea Level Pressure  
Sea Level Pressure 29.56 in    
Wind  
Wind Speed 4 mph (West)    
Max Wind Speed 14 mph    
Max Gust Speed 17 mph    
Visibility 3 miles    
Events      
Averages and records for this station are not official NWS values.
T = Trace of Precipitation, MM = Missing Value Source: NWS Daily Summary

Daily Weather History Graph

Daily Weather History Graph

Search for Another Location

Airport or City:

Trip Planner

Search our weather history database for the weather conditions in past years. The results will help you decide how hot, cold, wet, or windy it might be!

Date:

Astronomy

Dec. 16, 2012 Rise Set
Actual Time 8:14 AM EST 5:07 PM EST
Civil Twilight 7:41 AM EST 5:40 PM EST
Nautical Twilight 7:04 AM EST 6:17 PM EST
Astronomical Twilight 6:29 AM EST 6:52 PM EST
Moon 10:41 AM EST (12/16) 9:28 PM EST (12/16)
Length of Visible Light 9h 58m
Length of Day
8h 52m
Waxing Crescent, 16% of the Moon is Illuminated
Dec 16
Waxing Crescent
Dec 20
First Quarter
Dec 28
Full
Jan 4
Last Quarter
Jan 11
New

Hourly Weather History & Observations

Time (EST) Temp. Windchill Dew Point Humidity Pressure Visibility Wind Dir Wind Speed Gust Speed Precip Events Conditions
12:15 AM 39.2 °F 34.2 °F 37.4 °F 93% 29.56 in 3.0 mi East 6.9 mph - N/A   Overcast
12:35 AM 39.2 °F 34.2 °F 37.4 °F 93% 29.56 in 3.0 mi East 6.9 mph - N/A   Overcast
12:55 AM 39.2 °F 35.0 °F 37.4 °F 93% 29.55 in 3.0 mi ESE 5.8 mph - N/A   Overcast
1:15 AM 39.2 °F 35.0 °F 37.4 °F 93% 29.55 in 4.0 mi ESE 5.8 mph - N/A   Overcast
1:55 AM 39.2 °F 35.9 °F 37.4 °F 93% 29.54 in 3.0 mi ESE 4.6 mph - N/A   Overcast
2:15 AM 39.2 °F 37.0 °F 37.4 °F 93% 29.54 in 3.0 mi SE 3.5 mph - N/A   Overcast
2:35 AM 41.0 °F - 37.4 °F 87% 29.54 in 5.0 mi Calm Calm - N/A   Overcast
2:55 AM 41.0 °F - 39.2 °F 93% 29.54 in 4.0 mi Calm Calm - N/A   Overcast
3:15 AM 41.0 °F - 39.2 °F 93% 29.55 in 2.5 mi Calm Calm - N/A   Overcast
3:55 AM 42.8 °F - 39.2 °F 87% 29.55 in 1.2 mi Calm Calm - N/A   Overcast
4:15 AM 42.8 °F - 41.0 °F 93% 29.54 in 1.0 mi Calm Calm - N/A   Overcast
4:35 AM 42.8 °F 41.1 °F 41.0 °F 93% 29.54 in 1.2 mi SSW 3.5 mph - N/A   Overcast
4:55 AM 42.8 °F - 41.0 °F 93% 29.53 in 1.5 mi Calm Calm - N/A   Overcast
5:15 AM 42.8 °F - 41.0 °F 93% 29.53 in 1.8 mi Calm Calm - N/A   Overcast
5:35 AM 42.8 °F - 41.0 °F 93% 29.53 in 0.8 mi Calm Calm - N/A   Overcast
5:55 AM 42.8 °F - 41.0 °F 93% 29.54 in 1.0 mi Calm Calm - N/A   Overcast
6:35 AM 42.8 °F - 42.8 °F 100% 29.55 in 3.0 mi Calm Calm - N/A   Overcast
6:55 AM 42.8 °F - 41.0 °F 93% 29.54 in 2.5 mi Calm Calm - N/A   Overcast
7:15 AM 42.8 °F - 41.0 °F 93% 29.55 in 2.0 mi Calm Calm - N/A   Overcast
7:35 AM 42.8 °F - 41.0 °F 93% 29.55 in 2.0 mi Calm Calm - N/A   Overcast
8:15 AM 42.8 °F - 41.0 °F 93% 29.54 in 0.8 mi Calm Calm - N/A   Overcast
8:35 AM 42.8 °F - 41.0 °F 93% 29.55 in 0.2 mi Calm Calm - 0.01 in   Overcast
8:55 AM 42.8 °F - 41.0 °F 93% 29.54 in 0.2 mi Calm Calm - 0.01 in   Overcast
9:15 AM 42.8 °F - 39.2 °F 87% 29.54 in 0.2 mi Calm Calm - N/A   Overcast
9:35 AM 42.8 °F - 42.8 °F 100% 29.55 in 0.2 mi Calm Calm - N/A   Overcast
9:55 AM 44.6 °F - 42.8 °F 93% 29.55 in 0.2 mi Calm Calm - N/A   Overcast
10:15 AM 44.6 °F - 42.8 °F 93% 29.55 in 0.2 mi Calm Calm - N/A   Overcast
10:35 AM 44.6 °F - 42.8 °F 93% 29.55 in 0.2 mi Calm Calm - N/A   Overcast
11:15 AM 44.6 °F - 42.8 °F 93% 29.55 in 0.5 mi Calm Calm - N/A   Overcast
11:55 AM 44.6 °F - 44.6 °F 100% 29.55 in 1.5 mi Calm Calm - N/A   Overcast
12:15 PM 44.6 °F - 44.6 °F 100% 29.54 in 2.0 mi Calm Calm - N/A   Overcast
12:35 PM 44.6 °F - 44.6 °F 100% 29.54 in 3.0 mi Calm Calm - N/A   Overcast
12:55 PM 44.6 °F - 44.6 °F 100% 29.54 in 2.5 mi Calm Calm - 0.01 in   Overcast
1:15 PM 44.6 °F - 44.6 °F 100% 29.53 in 1.5 mi Calm Calm - N/A   Overcast
1:35 PM 44.6 °F - 44.6 °F 100% 29.53 in 1.5 mi Calm Calm - N/A   Overcast
1:55 PM 46.4 °F - 44.6 °F 93% 29.53 in 4.0 mi Calm Calm - 0.01 in   Overcast
2:15 PM 44.6 °F 42.2 °F 42.8 °F 93% 29.53 in 5.0 mi West 4.6 mph - N/A   Overcast
2:35 PM 44.6 °F 42.2 °F 42.8 °F 93% 29.53 in 3.0 mi WSW 4.6 mph - N/A   Overcast
2:55 PM 44.6 °F 43.1 °F 42.8 °F 93% 29.53 in 1.8 mi WSW 3.5 mph - N/A   Overcast
3:15 PM 44.6 °F 41.4 °F 42.8 °F 93% 29.53 in 0.8 mi West 5.8 mph - N/A   Overcast
3:35 PM 44.6 °F 42.2 °F 42.8 °F 93% 29.53 in 0.2 mi West 4.6 mph - N/A   Overcast
3:55 PM 44.6 °F 43.1 °F 42.8 °F 93% 29.53 in 0.8 mi West 3.5 mph - 0.01 in   Overcast
4:15 PM 44.6 °F 41.4 °F 42.8 °F 93% 29.54 in 1.8 mi West 5.8 mph - N/A   Overcast
4:35 PM 44.6 °F 40.7 °F 41.0 °F 87% 29.55 in 2.0 mi West 6.9 mph - N/A   Overcast
5:15 PM 42.8 °F 37.0 °F 41.0 °F 93% 29.57 in 1.8 mi WNW 10.4 mph - 0.01 in   Overcast
5:35 PM 42.8 °F 36.2 °F 39.2 °F 87% 29.57 in 3.0 mi WNW 12.7 mph 17.3 mph 0.03 in   Overcast
5:55 PM 42.8 °F 35.8 °F 39.2 °F 87% 29.56 in 2.0 mi WNW 13.8 mph - 0.03 in   Overcast
6:35 PM 41.0 °F 34.7 °F 39.2 °F 93% 29.58 in 3.0 mi West 10.4 mph - N/A   Overcast
6:55 PM 41.0 °F 34.3 °F 39.2 °F 93% 29.59 in 2.5 mi West 11.5 mph - N/A   Overcast
7:15 PM 41.0 °F 34.7 °F 39.2 °F 93% 29.60 in 2.5 mi WNW 10.4 mph - 0.01 in   Overcast
7:35 PM 41.0 °F 35.8 °F 39.2 °F 93% 29.61 in 2.0 mi West 8.1 mph - 0.01 in   Overcast
7:55 PM 41.0 °F 33.9 °F 37.4 °F 87% 29.62 in 2.0 mi WNW 12.7 mph - 0.02 in   Overcast
8:15 PM 39.2 °F 33.6 °F 37.4 °F 93% 29.62 in 2.0 mi West 8.1 mph - N/A   Overcast
8:35 PM 39.2 °F 34.2 °F 37.4 °F 93% 29.62 in 6.0 mi WNW 6.9 mph - 0.01 in   Overcast
8:55 PM 39.2 °F 33.6 °F 37.4 °F 93% 29.62 in 5.0 mi WNW 8.1 mph - 0.01 in   Overcast
9:15 PM 39.2 °F 33.6 °F 37.4 °F 93% 29.62 in 5.0 mi WNW 8.1 mph - N/A   Overcast
9:35 PM 39.2 °F 34.2 °F 37.4 °F 93% 29.63 in 10.0 mi West 6.9 mph - N/A   Overcast
9:55 PM 39.2 °F 33.6 °F 37.4 °F 93% 29.63 in 10.0 mi WNW 8.1 mph - N/A   Overcast
10:15 PM 39.2 °F 34.2 °F 35.6 °F 87% 29.63 in 10.0 mi WNW 6.9 mph - N/A   Overcast
10:35 PM 39.2 °F 34.2 °F 35.6 °F 87% 29.63 in 10.0 mi West 6.9 mph - N/A   Overcast
10:55 PM 39.2 °F 34.2 °F 35.6 °F 87% 29.63 in 10.0 mi West 6.9 mph - N/A   Overcast
11:15 PM 39.2 °F 33.0 °F 35.6 °F 87% 29.63 in 10.0 mi WNW 9.2 mph - N/A   Overcast
11:35 PM 39.2 °F 33.0 °F 35.6 °F 87% 29.64 in 10.0 mi West 9.2 mph - N/A   Overcast
11:55 PM 39.2 °F 32.5 °F 35.6 °F 87% 29.64 in 10.0 mi WNW 10.4 mph - N/A   Overcast